Weather History for KPVU - November, 2013

Change the Weather History Date:

Thursday, November 7, 2013

  Actual Average Record
Temperature  
Mean Temperature 40 °F -  
Max Temperature 53 °F 48 °F 69 °F (1999)
Min Temperature 28 °F 30 °F 23 °F (1996)
Degree Days  
Heating Degree Days 24    
Moisture  
Dew Point 27 °F    
Average Humidity 63    
Maximum Humidity 93    
Minimum Humidity 38    
Precipitation  
Precipitation 0.00 in - - ()
Sea Level Pressure  
Sea Level Pressure 30.29 in    
Wind  
Wind Speed 3 mph (SE)    
Max Wind Speed 14 mph    
Max Gust Speed -    
Visibility 12 miles    
Events      
Averages and records for this station are not official NWS values.
T = Trace of Precipitation, MM = Missing Value Source: NWS Daily Summary

Daily Weather History Graph

Daily Weather History Graph

Search for Another Location

Airport or City:

Trip Planner

Search our weather history database for the weather conditions in past years. The results will help you decide how hot, cold, wet, or windy it might be!

Date:

Astronomy

Nov. 07, 2013 Rise Set
Actual Time 7:03 AM MST 5:17 PM MST
Civil Twilight 6:35 AM MST 5:45 PM MST
Nautical Twilight 6:02 AM MST 6:18 PM MST
Astronomical Twilight 5:30 AM MST 6:49 PM MST
Moon 11:15 AM MST (11/7) 9:32 PM MST (11/7)
Length of Visible Light 11h 10m
Length of Day
10h 13m
Waxing Crescent, 23% of the Moon is Illuminated
Nov 7
Waxing Crescent
Nov 9
First Quarter
Nov 17
Full
Nov 25
Last Quarter
Dec 2
New

Hourly Weather History & Observations

Time (MST) Temp. Windchill Dew Point Humidity Pressure Visibility Wind Dir Wind Speed Gust Speed Precip Events Conditions
12:15 AM 32.0 °F 28.7 °F 26.6 °F 80% 30.44 in 10.0 mi West 3.5 mph - N/A   Clear
12:35 AM 35.6 °F - 24.8 °F 65% 30.44 in 10.0 mi Calm Calm - N/A   Clear
12:55 AM 33.8 °F - 24.8 °F 70% 30.44 in 10.0 mi Calm Calm - N/A   Clear
1:35 AM 30.2 °F - 26.6 °F 86% 30.43 in 10.0 mi Calm Calm - N/A   Clear
1:55 AM 28.4 °F - 23.0 °F 80% 30.43 in 10.0 mi Calm Calm - N/A   Clear
2:15 AM 30.2 °F - 26.6 °F 86% 30.43 in 10.0 mi Calm Calm - N/A   Clear
2:35 AM 28.4 °F - 24.8 °F 86% 30.43 in 10.0 mi Calm Calm - N/A   Clear
2:55 AM 30.2 °F - 24.8 °F 80% 30.43 in 10.0 mi Calm Calm - N/A   Clear
3:15 AM 28.4 °F - 26.6 °F 93% 30.42 in 10.0 mi Calm Calm - N/A   Clear
3:35 AM 30.2 °F - 24.8 °F 80% 30.42 in 10.0 mi Calm Calm - N/A   Clear
3:55 AM 33.8 °F - 26.6 °F 75% 30.42 in 10.0 mi Calm Calm - N/A   Clear
4:35 AM 30.2 °F 26.7 °F 24.8 °F 80% 30.41 in 10.0 mi SSW 3.5 mph - N/A   Clear
4:55 AM 30.2 °F - 24.8 °F 80% 30.41 in 10.0 mi Calm Calm - N/A   Clear
5:15 AM 28.4 °F - 23.0 °F 80% 30.41 in 10.0 mi Calm Calm - N/A   Scattered Clouds
5:35 AM 32.0 °F 23.6 °F 24.8 °F 75% 30.41 in 10.0 mi South 10.4 mph - N/A   Scattered Clouds
5:55 AM 33.8 °F 27.0 °F 24.8 °F 70% 30.41 in 10.0 mi SSE 8.1 mph - N/A   Clear
6:15 AM 32.0 °F 27.5 °F 24.8 °F 75% 30.40 in 10.0 mi SE 4.6 mph - N/A   Scattered Clouds
6:50 AM 28.4 °F - 24.8 °F 86% 30.39 in 15.0 mi Calm Calm - N/A   Partly Cloudy
7:50 AM 30.2 °F - 24.8 °F 80% 30.39 in 15.0 mi Calm Calm - N/A   Scattered Clouds
8:59 AM 39.2 °F 35.9 °F 28.4 °F 65% 30.40 in 15.0 mi Variable 4.6 mph - N/A   Mostly Cloudy
10:50 AM 44.6 °F 43.1 °F 32.0 °F 61% 30.35 in 15.0 mi SW 3.5 mph - N/A   Mostly Cloudy
10:55 AM 44.6 °F 40.7 °F 28.4 °F 53% 30.39 in 15.0 mi SE 6.9 mph - N/A   Mostly Cloudy
11:52 AM 46.4 °F 44.3 °F 28.4 °F 50% 30.32 in 15.0 mi Variable 4.6 mph - N/A   Mostly Cloudy
1:55 PM 53.6 °F - 28.4 °F 38% 30.24 in 15.0 mi Variable 4.6 mph - N/A   Overcast
2:55 PM 51.8 °F - 30.2 °F 44% 30.20 in 15.0 mi Variable 4.6 mph - N/A   Overcast
3:47 PM 53.6 °F - 33.8 °F 47% 30.18 in 15.0 mi Calm Calm - N/A   Mostly Cloudy
4:55 PM 50.0 °F - 30.2 °F 47% 30.15 in 15.0 mi Calm Calm - N/A   Mostly Cloudy
5:47 PM 50.0 °F - 33.8 °F 54% 30.12 in 15.0 mi Calm Calm - N/A   Scattered Clouds
6:52 PM 50.0 °F - 33.8 °F 54% 30.12 in 15.0 mi ESE 4.6 mph - N/A   Scattered Clouds
7:55 PM 46.4 °F - 32.0 °F 57% 30.10 in 15.0 mi Calm Calm - N/A   Scattered Clouds
8:55 PM 51.8 °F - 28.4 °F 41% 30.07 in 15.0 mi ESE 13.8 mph - N/A   Mostly Cloudy
9:15 PM 50.0 °F - 30.2 °F 47% 30.08 in 10.0 mi SE 10.4 mph - N/A   Partly Cloudy
9:35 PM 51.8 °F - 28.4 °F 41% 30.08 in 10.0 mi SSE 11.5 mph - N/A   Clear
9:55 PM 50.0 °F - 26.6 °F 40% 30.09 in 10.0 mi SE 9.2 mph - N/A   Clear
10:35 PM 50.0 °F - 26.6 °F 40% 30.10 in 10.0 mi ESE 6.9 mph - N/A   Clear
10:55 PM 48.2 °F - 24.8 °F 40% 30.10 in 10.0 mi ESE 5.8 mph - N/A   Clear
11:15 PM 48.2 °F - 26.6 °F 43% 30.09 in 10.0 mi East 5.8 mph - N/A   Clear
11:35 PM 48.2 °F - 26.6 °F 43% 30.09 in 10.0 mi SE 5.8 mph - N/A   Clear
11:55 PM 48.2 °F - 26.6 °F 43% 30.08 in 10.0 mi SE 8.1 mph - N/A   Clear